This is the latest recevied weather packets stored in our database for station/object IA5FYI-13. If no packets are shown the sender has not sent any weather packets the latest 10 day(s).
| Time | Temp. | Humidity | Pressure | Rain* | Wind** | Luminosity | Snow |
|---|---|---|---|---|---|---|---|
| 1777617913 | 16.11° C | 41% | 1022.4 hPa | 0 mm | - | - | - |
| 1777617613 | 16.11° C | 42% | 1022.4 hPa | 0 mm | - | - | - |
| 1777617310 | 16.11° C | 42% | 1022.4 hPa | 0 mm | - | - | - |
| 1777617023 | 15° C | 42% | 1022.7 hPa | 0 mm | - | - | - |
| 1777616709 | 16.11° C | 44% | 1022.7 hPa | 0 mm | - | - | - |
| 1777616413 | 16.11° C | 43% | 1022.4 hPa | 0 mm | - | - | - |
| 1777616113 | 16.11° C | 41% | 1022.4 hPa | 0 mm | - | - | - |
| 1777615813 | 16.11° C | 35% | 1022.4 hPa | 0 mm | - | - | - |
| 1777615509 | 16.11° C | 35% | 1022.4 hPa | 0 mm | - | - | - |
| 1777615234 | 16.11° C | 34% | 1022.4 hPa | 0 mm | - | - | - |
| 1777614909 | 16.11° C | 37% | 1022.4 hPa | 0 mm | - | - | - |
| 1777614612 | 16.11° C | 37% | 1022 hPa | 0 mm | - | - | - |
| 1777614312 | 16.11° C | 37% | 1022 hPa | 0 mm | - | - | - |
| 1777614013 | 15° C | 37% | 1022 hPa | 0 mm | - | - | - |
| 1777613709 | 15° C | 37% | 1022 hPa | 0 mm | - | - | - |
| 1777613423 | 15° C | 38% | 1022 hPa | 0 mm | - | - | - |
| 1777613110 | 15° C | 37% | 1022 hPa | 0 mm | - | - | - |
| 1777612812 | 15° C | 37% | 1022 hPa | 0 mm | - | - | - |
| 1777612513 | 15° C | 38% | 1022 hPa | 0 mm | - | - | - |
| 1777612212 | 15° C | 40% | 1022 hPa | 0 mm | - | - | - |
| 1777611909 | 15° C | 40% | 1022 hPa | 0 mm | - | - | - |
| 1777611632 | 15° C | 41% | 1021.7 hPa | 0 mm | - | - | - |
| 1777611309 | 13.89° C | 41% | 1021.7 hPa | 0 mm | - | - | - |
| 1777611012 | 13.89° C | 43% | 1021.7 hPa | 0 mm | - | - | - |
| 1777610712 | 13.89° C | 42% | 1022 hPa | 0 mm | - | - | - |
* Rain latest hour (hover to see other rain measurements)
** Current wind speed in m/s (hover to see current wind gust speed)